User: anonymous   Login
Location: Unspecified
(0.0000°N, 0.0000°E)
Time: 11:16:45
(UTC+00:00)
Language:

Transit 2A Rocket - Orbit

View from above orbital plane
View from above orbital plane
View from above satellite
View from above satellite

Ground track
Ground track

The orbit data is extracted from the following two-line orbital elements,

1 00047U 60007C   21022.85604385 -.00000041  00000-0  15780-4 0  9991
2 00047  66.6664 288.3150 0223182 144.3038 217.3227 14.42126996166310
Epoch (UTC): 22 January 2021 20:32:42
Eccentricity: 0.0223182
inclination: 66.6664°
perigee height: 592 km
apogee height: 910 km
right ascension of ascending node: 288.3150°
argument of perigee: 144.3038°
revolutions per day: 14.42126996
mean anomaly at epoch: 217.3227°
orbit number at epoch: 16631

The dashed part of the orbit path shows where the satellite is in the earth's shadow,  

DLR